SCP
0 0 0 0 0 0 0 0 0 0 0 0 0 1 1 1 1 1 1 1 1 1 1 1 1 1 1 1 1 1 1 1 1 1 1 1 1 1 1 1 1 1 1 1 1 1 1 1 1
0 0 0 0 0 0 0 0 0 0 0 0 0 1 1 1 1 1 1 1 1 1 1 1 1 1 1 1 1 1 1 1 1 1 1 1 1 1 1 1 1 1 1 1 1 1 1 1 1
0 0 0 0 0 0 0 0 0 0 0 0 1 0 0 1 1 1 1 1 1 1 1 1 1 1 1 1 1 1 1 1 1 0 0 0 1 1 1 1 1 1 1 1 0 0 0 0 0
0 0 0 0 0 0 0 0 0 0 0 0 1 1 0 1 1 1 1 1 1 1 1 1 1 1 1 1 1 1 1 1 0 0 0 0 0 0 0 0 0 0 0 0 0 0 0 0 0
0 0 0 0 0 0 0 0 0 0 0 1 1 1 1 1 2 2 1 1 1 1 1 1 1 1 1 1 1 1 1 1 0 0 0 0 0 0 0 0 0 0 0 0 0 0 0 0 0
0 0 0 0 0 0 0 0 0 0 0 1 1 1 1 2 2 2 1 1 1 1 1 1 1 1 1 1 1 1 1 0 0 0 1 0 0 0 0 0 0 1 1 0 0 0 0 0 0
0 0 0 0 0 0 0 0 0 0 1 1 2 1 2 2 2 2 1 1 1 1 1 1 1 1 1 1 1 1 1 0 0 0 0 0 0 0 0 0 0 1 1 1 0 0 0 0 0
0 0 0 0 0 0 0 0 0 0 1 1 2 1 2 2 2 2 1 1 1 1 1 1 1 1 1 1 1 0 0 0 0 0 0 0 0 0 0 0 1 1 1 1 1 1 1 1 1
0 0 0 0 0 0 0 0 0 0 1 1 2 2 2 3 3 3 2 1 1 1 1 1 1 1 1 1 0 0 0 0 0 0 0 0 0 0 0 0 1 1 1 1 1 1 1 1 1
0 0 0 0 0 0 0 0 0 0 1 2 2 2 2 3 3 3 3 2 1 1 1 1 1 1 1 1 0 0 0 0 0 0 0 0 0 0 0 0 1 1 1 1 1 1 1 1 1
0 0 0 0 0 0 0 0 0 0 1 2 3 3 3 3 3 3 3 2 2 1 1 1 1 1 1 1 1 0 0 0 0 0 0 0 0 0 0 0 1 1 1 1 1 1 1 1 1
0 0 0 0 0 0 0 0 0 0 1 2 3 4 3 3 2 2 2 2 2 2 1 1 1 1 1 1 1 0 0 0 0 0 0 0 0 0 0 0 0 1 1 1 1 1 1 1 1
0 0 0 0 0 0 0 0 0 0 1 2 4 4 3 2 2 2 2 2 2 2 1 1 1 1 1 1 1 1 0 0 0 0 0 0 0 0 0 0 0 1 1 1 1 1 1 1 1
0 0 0 0 0 0 0 0 0 0 1 2 3 4 3 2 2 2 2 2 2 2 2 2 1 1 1 1 1 1 1 1 1 1 1 1 1 1 1 1 1 1 1 1 1 1 1 1 1
0 0 0 0 0 0 0 0 0 1 2 2 3 3 3 2 2 2 2 2 3 3 2 2 2 2 2 2 1 1 1 1 1 1 1 1 1 1 1 1 1 1 1 1 1 1 1 1 1
0 0 0 0 0 0 0 0 0 1 2 2 2 3 3 3 3 4 4 4 3 3 3 3 3 3 3 3 2 2 2 2 1 1 1 1 1 1 1 1 1 1 1 1 1 1 1 1 0
0 0 0 0 0 0 0 0 0 1 2 2 3 3 4 4 5 6 6 5 4 4 4 5 5 4 4 4 3 3 3 3 3 2 2 2 2 2 2 1 1 1 1 1 1 1 1 0 0
0 0 0 0 0 0 0 0 0 1 2 3 4 4 5 5 6 6 6 6 5 5 6 8 8 7 6 5 5 5 5 5 4 3 3 2 2 2 2 2 2 2 2 2 1 1 0 0 0
0 0 0 0 0 0 0 0 1 2 4 5 5 5 5 5 5 6 7 7 7 9 10 10 10 9 7 6 6 7 6 5 4 3 3 3 2 3 3 2 2 2 2 1 1 0 0 0 0
0 0 0 0 0 0 0 1 2 3 5 6 5 5 6 8 9 10 11 11 12 13 12 10 9 9 8 7 7 7 6 5 4 3 3 3 3 3 3 2 2 2 1 1 1 0 0 0 0
0 0 0 0 0 0 0 1 2 4 5 6 6 6 8 11 15 17 17 16 15 14 11 9 9 9 9 8 7 6 5 4 4 3 2 2 2 2 2 2 2 1 1 0 0 0 0 0 0
0 0 0 0 0 0 0 1 2 4 5 6 6 7 8 10 14 19 21 19 15 12 10 10 10 11 10 9 8 7 6 5 4 3 2 1 1 2 2 1 1 0 0 0 0 0 0 0 0
0 0 0 0 0 0 0 0 2 3 4 5 6 6 7 8 12 18 21 18 14 11 10 11 12 12 11 11 10 8 7 6 4 2 1 1 1 1 1 1 0 0 0 0 0 0 0 0 0
0 0 0 0 0 0 0 0 1 2 3 5 6 6 7 8 11 16 17 15 12 11 10 12 13 12 11 11 11 8 6 5 3 1 0 0 0 0 0 0 0 0 0 0 0 0 0 0 0
0 0 0 0 0 0 0 1 1 2 3 4 5 6 6 7 9 11 12 11 10 9 9 9 9 8 9 10 8 5 3 2 1 0 0 0 0 0 0 0 0 0 0 0 0 0 0 0 0
0 0 0 0 0 0 0 1 2 2 3 4 4 5 5 6 7 7 7 7 7 6 6 5 4 4 5 6 4 2 1 0 0 0 0 0 0 0 0 0 0 0 0 0 0 0 0 0 0
0 0 0 0 0 0 1 1 2 2 3 3 3 4 4 5 5 5 4 4 4 4 3 3 2 2 2 2 2 1 0 0 0 0 0 0 0 0 0 0 0 0 0 0 0 0 0 0 0
0 0 0 0 0 0 1 1 2 2 2 3 2 2 3 3 3 2 2 2 2 2 2 2 1 1 1 1 1 0 0 0 0 0 0 0 0 0 0 0 0 0 0 0 0 0 0 0 0
0 0 0 0 0 0 0 1 1 2 2 2 1 1 1 1 1 1 1 1 1 1 1 1 1 0 0 0 0 0 0 0 0 0 0 0 0 0 0 0 0 0 0 0 0 0 0 0 0
0 0 0 0 0 0 0 1 1 1 2 1 1 1 1 1 0 0 0 0 0 0 0 0 0 0 0 0 0 0 0 0 0 0 0 0 0 0 0 0 0 0 0 0 0 0 0 0 0
Wind_Speed
9 6 0 3 5 4 1 3 4 3 4 4 3 4 5 3 4 4 4 15 18 16 12 15 17 18 17 17 16 16 16 16 15 15 15 15 15 15 14 14 14 13 13 12 12 11 11 11 10
4 4 3 5 5 1 4 4 4 7 6 4 3 4 5 3 5 9 7 15 19 17 12 13 18 18 18 17 16 16 16 16 16 15 15 15 15 14 14 14 13 12 12 11 11 10 9 9 8
5 1 3 4 2 5 5 4 5 6 7 4 3 2 4 7 8 8 10 18 17 14 11 14 19 18 18 17 16 16 16 16 16 15 15 14 14 13 13 13 13 12 11 10 10 8 8 7 6
3 5 4 3 6 7 7 9 7 6 5 2 5 3 2 4 7 12 19 19 17 14 12 14 19 19 18 18 17 16 16 16 16 15 15 14 14 13 13 13 12 11 10 10 9 7 6 5 4
4 3 2 2 7 8 7 9 8 6 5 2 4 4 2 3 16 22 20 18 17 13 10 12 17 18 18 18 17 16 16 16 15 15 14 14 13 12 12 12 11 11 10 9 8 6 5 4 3
3 4 2 5 9 8 8 7 6 6 5 1 5 5 2 9 19 19 18 16 16 15 11 11 17 19 18 18 17 16 16 15 15 14 14 13 13 12 12 12 11 10 9 8 7 6 4 3 2
4 4 5 6 7 9 11 7 5 5 6 5 7 6 5 10 16 18 16 15 14 14 12 9 10 13 17 17 16 16 15 15 15 14 14 14 13 13 13 12 11 10 9 8 7 6 5 4 3
5 4 4 5 6 10 9 6 6 5 7 5 8 11 10 13 16 17 15 14 13 11 11 9 8 8 8 10 16 16 16 15 15 15 15 15 14 14 13 11 11 11 10 9 8 7 6 5 4
4 3 5 6 6 8 7 7 8 5 4 3 5 9 14 20 19 18 16 13 11 11 9 9 9 8 8 8 12 14 16 15 15 13 16 13 7 7 8 10 12 11 10 9 8 7 6 5 5
5 5 9 8 7 8 10 9 9 5 4 1 4 9 19 20 19 20 19 17 15 15 12 10 10 10 9 9 7 6 7 8 7 7 8 6 5 5 8 10 13 12 11 9 9 7 6 4 2
6 8 8 10 11 9 10 11 7 1 2 4 12 17 20 18 17 18 18 18 16 16 15 13 12 11 10 7 7 4 4 5 6 7 7 6 5 4 4 3 5 6 7 4 4 3 2 2 2
4 7 8 10 10 8 9 8 6 3 6 6 13 21 20 18 17 17 18 17 15 15 15 14 14 12 10 8 7 6 5 5 5 6 8 6 4 4 4 3 4 3 2 3 2 2 2 2 2
6 10 12 12 12 10 8 7 5 6 3 4 11 16 18 17 15 13 14 15 15 15 14 15 15 14 11 9 8 8 7 7 7 6 7 7 5 5 4 4 3 4 3 3 2 2 2 2 1
7 7 9 9 11 8 8 8 4 7 2 6 11 15 16 17 15 12 12 13 15 15 15 14 15 15 12 11 9 8 7 7 6 6 7 8 5 5 5 4 4 3 3 3 3 3 2 1 1
5 6 9 7 7 8 5 8 8 9 3 5 10 11 13 13 13 14 15 15 15 15 15 14 15 14 14 12 11 8 7 7 6 6 6 7 6 6 5 4 4 3 3 3 2 2 2 2 2
4 3 5 9 5 6 4 11 13 8 4 7 9 10 11 11 13 13 14 13 12 12 13 15 14 14 13 11 10 7 7 7 6 5 5 7 6 6 5 4 4 3 3 3 2 2 2 2 2
3 2 5 9 6 4 5 10 12 7 6 8 9 10 11 10 9 10 12 14 14 14 14 14 11 13 12 10 7 6 6 6 5 4 4 5 5 6 5 4 3 4 3 2 3 2 2 2 2
4 4 5 7 7 3 7 13 13 6 7 7 7 7 8 10 10 9 9 10 10 11 13 13 10 10 9 7 6 5 5 4 3 3 4 4 4 5 5 4 4 4 3 3 3 3 3 2 1
5 7 10 11 8 5 11 14 13 7 3 4 5 5 7 7 5 5 5 6 6 7 8 10 11 11 9 8 7 6 5 4 4 4 4 5 5 5 5 4 4 4 3 3 3 3 4 3 2
7 9 11 12 9 5 6 9 7 2 2 3 4 4 5 6 6 6 7 6 7 7 7 8 9 9 9 6 5 4 5 5 4 4 6 6 6 5 5 5 4 4 4 4 4 3 3 2 3
10 8 8 8 8 6 2 5 2 2 6 9 8 7 5 7 8 7 7 6 7 7 7 7 8 7 7 7 6 7 6 4 4 5 5 6 7 7 7 6 6 5 5 4 4 3 3 2 2
9 9 7 5 3 5 3 2 5 1 6 10 10 9 8 8 8 7 7 6 6 6 6 6 7 7 6 7 8 9 6 5 4 4 5 7 8 8 8 7 7 6 5 6 5 4 3 3 2
10 8 4 2 0 3 3 1 6 3 5 8 9 10 10 9 9 8 8 7 7 7 7 6 7 8 7 7 7 8 7 6 7 7 9 8 7 8 8 8 7 7 6 6 6 6 6 4 3
6 2 4 4 5 2 3 2 4 2 4 8 9 11 11 11 11 11 10 11 11 10 9 8 9 9 7 7 8 9 10 10 10 9 8 7 6 7 9 9 8 7 6 6 6 6 7 5 5
1 5 4 4 3 5 3 2 1 6 9 11 12 11 11 11 11 11 12 12 12 12 11 11 11 11 10 10 10 10 11 11 11 9 9 8 6 6 7 8 7 6 6 6 6 7 6 6 6
2 8 7 4 3 4 3 3 5 11 13 14 13 12 12 12 11 12 12 12 12 13 13 13 14 13 13 13 12 12 11 9 9 9 8 8 6 7 7 7 7 7 7 7 6 6 5 5 5
2 3 7 6 1 1 1 4 6 10 12 12 12 12 11 11 11 12 12 13 13 14 14 13 14 15 14 14 13 13 12 11 11 10 9 7 7 7 8 8 8 8 8 7 6 6 5 5 5
5 4 5 5 4 2 3 4 5 9 10 11 11 10 10 10 11 11 11 12 13 13 13 14 15 15 14 13 12 12 12 11 10 10 10 9 8 7 8 8 8 8 8 8 7 6 6 7 5
3 3 3 3 4 5 3 2 1 11 13 13 11 10 9 10 10 10 10 11 12 13 13 14 14 14 14 13 13 13 12 11 10 10 10 8 7 7 7 7 8 8 8 8 7 7 7 6 6
5 2 3 3 3 3 3 1 6 11 13 14 13 11 10 10 10 10 10 11 12 12 12 13 13 13 12 12 12 12 11 10 10 10 9 8 7 7 7 7 8 9 9 8 8 7 7 6 6
Wind_Direction
320 312 12 69 49 45 261 216 189 231 243 221 178 132 108 110 160 162 134 141 136 142 148 147 143 140 138 134 132 129 125 121 117 113 110 108 107 106 106 106 105 105 104 102 100 97 94 91 89
318 326 35 61 81 15 266 215 196 218 226 170 121 124 101 89 106 115 121 141 138 141 145 147 143 141 140 139 138 136 133 130 126 122 119 117 114 113 112 112 111 110 109 107 105 102 98 94 91
310 352 68 73 144 196 242 240 237 242 242 180 151 124 128 140 128 131 142 140 136 139 142 148 144 143 143 143 142 141 139 136 134 132 128 125 123 120 120 120 119 118 117 115 112 109 106 101 94
17 31 50 91 243 237 236 266 266 279 274 183 134 100 84 138 134 136 139 141 137 139 143 148 145 145 145 145 145 145 145 143 142 139 137 133 130 128 127 128 128 128 126 124 122 121 117 111 103
57 72 54 267 255 258 259 268 269 270 264 215 128 113 45 49 118 132 142 143 140 139 141 146 145 146 147 148 148 148 148 148 146 144 142 138 136 135 135 136 137 137 137 136 136 136 135 132 124
48 82 145 241 258 271 276 266 278 278 271 208 127 123 93 126 131 142 144 144 141 141 141 145 148 148 149 150 150 150 150 150 148 147 145 143 142 142 143 145 147 148 149 150 152 156 164 171 183
137 136 200 229 261 277 272 277 268 255 259 216 146 114 126 147 146 145 143 139 138 141 143 145 150 150 151 151 151 151 151 150 150 149 149 149 149 151 154 154 156 159 161 164 169 178 191 208 228
157 138 220 232 248 265 272 287 271 244 241 188 141 143 163 168 150 143 137 135 137 143 147 148 148 147 147 151 154 154 154 153 153 154 155 156 158 161 163 162 166 170 175 180 186 195 209 227 245
133 118 225 229 229 258 288 300 288 274 242 217 171 166 159 152 145 141 138 137 144 151 155 154 152 150 148 152 159 158 158 159 157 160 162 160 160 163 167 173 177 182 187 192 199 208 222 240 259
137 182 228 229 233 262 284 286 285 312 294 241 96 113 139 148 151 151 153 156 160 163 166 164 161 159 159 162 152 156 158 159 159 163 165 161 164 174 179 188 189 191 196 202 210 221 234 248 266
176 199 231 249 253 259 275 280 280 254 269 185 153 148 153 154 156 159 162 164 167 168 170 170 169 167 168 158 157 162 157 161 167 171 170 169 171 182 186 183 196 199 201 204 218 228 238 245 246
233 249 238 250 255 258 261 274 293 253 226 200 164 156 158 160 164 165 166 167 164 168 175 173 173 173 174 163 167 169 167 173 178 182 180 176 179 184 184 185 186 188 193 194 204 201 224 250 256
238 255 259 254 258 253 260 269 273 276 249 170 153 154 164 168 168 165 163 162 162 170 175 177 177 177 175 167 175 176 178 182 185 185 188 184 183 184 181 184 181 188 193 193 195 202 216 223 232
238 249 264 265 264 261 259 272 283 270 196 153 163 167 176 175 168 160 161 164 168 172 176 179 182 180 175 175 180 179 181 181 186 189 190 187 183 178 176 177 177 186 192 195 190 193 188 179 137
254 275 290 278 258 257 263 285 258 250 226 179 184 182 175 174 172 172 171 169 171 175 177 179 185 182 179 179 183 179 180 178 185 188 187 186 181 174 168 165 170 181 173 166 163 164 136 128 105
336 323 290 284 253 252 194 257 259 251 213 207 198 193 181 180 182 180 174 167 167 168 174 179 186 184 181 178 180 173 173 175 181 179 180 181 174 161 154 153 159 157 142 136 132 116 97 80 87
350 286 276 291 275 241 195 248 258 241 207 215 208 198 186 182 188 184 178 170 165 166 170 173 180 181 178 170 165 159 159 164 168 166 169 169 161 150 142 142 140 132 119 114 115 89 98 91 86
262 274 282 274 283 261 236 248 259 241 197 207 201 195 180 178 189 180 170 163 159 163 166 167 172 172 164 155 142 135 130 134 130 134 137 139 140 134 125 122 122 119 110 99 96 93 74 78 78
254 278 282 278 275 263 246 247 254 245 220 191 194 186 178 178 166 134 136 135 139 153 157 163 173 171 166 161 153 145 133 116 99 92 99 102 103 109 113 114 106 103 105 109 108 100 80 49 26
266 276 280 287 293 278 258 251 245 246 161 146 148 154 161 147 121 107 105 116 144 151 160 169 170 168 170 162 142 122 114 102 95 89 77 77 85 90 99 99 101 96 96 83 78 95 97 58 34
262 249 258 272 314 338 29 324 307 48 77 68 64 80 91 115 127 120 115 120 131 139 151 158 159 154 144 129 116 111 103 97 88 83 74 63 73 76 82 87 90 84 87 86 74 84 111 115 47
257 252 252 278 1 315 52 306 294 43 64 63 59 61 69 75 87 100 104 104 106 116 122 127 123 111 114 127 136 138 135 129 111 99 85 70 66 71 74 78 82 81 79 79 68 60 78 105 94
234 253 251 253 93 338 4 106 289 39 77 75 63 57 58 65 76 79 79 79 73 72 82 91 98 102 108 113 126 126 121 115 108 99 90 78 67 68 74 76 77 76 74 74 71 66 65 69 83
230 302 356 45 71 336 262 145 290 358 130 105 78 64 59 60 66 64 62 63 61 61 65 78 88 85 85 95 103 115 120 119 114 108 101 86 76 71 70 75 74 74 73 72 73 73 71 71 73
116 92 33 5 17 256 257 135 26 37 85 96 89 72 61 59 59 60 59 61 63 65 68 74 80 78 79 84 87 94 102 104 105 106 102 96 85 78 69 75 75 72 71 70 69 70 66 63 67
193 139 153 182 216 287 342 108 84 81 82 82 79 72 63 60 59 59 57 59 62 65 67 73 78 78 76 79 80 82 85 91 93 94 96 93 89 84 80 75 73 70 68 66 62 61 59 58 57
159 178 171 144 174 309 293 114 113 102 94 89 83 75 68 63 63 64 62 62 63 65 66 71 77 77 77 79 81 80 80 85 91 90 87 85 85 87 78 74 70 64 61 59 58 54 47 49 48
157 161 95 120 159 231 253 180 172 147 124 110 98 88 79 72 68 66 65 67 67 68 71 71 73 75 75 76 80 83 80 82 85 87 85 82 79 78 77 73 70 64 59 55 54 48 43 50 39
36 52 90 136 162 168 221 268 283 150 132 119 108 99 92 86 80 75 73 73 74 72 71 73 74 77 77 77 81 82 81 81 82 82 80 78 75 73 75 75 72 65 57 51 53 49 42 40 27
86 81 109 145 247 181 160 25 47 112 118 118 113 105 97 89 84 81 80 79 78 76 75 76 77 79 79 82 82 82 80 79 78 76 74 73 71 67 69 69 68 67 62 56 53 44 36 30 19